Station FPKG1 - 8670870 - Fort Pulaski, GA Image indicating link to RSS feed of recent meteorological observations for station FPKG1


Conditions at FPKG1 as of
(6:00 pm EDT)
2200 GMT on 05/30/2024:
     

Click on the graph icon in the table below to see a time series plot of the last five days of that observation.

5-day plot - Wind Direction Wind Direction (WDIR): SE ( 130 deg true )
5-day plot - Wind Speed Wind Speed (WSPD): 5.1 kts
5-day plot - Wind Gust Wind Gust (GST): 8.9 kts
5-day plot - Wind Speed at 10 Meters Wind Speed at 10 meters (WSPD10M): 5.8 kts
5-day plot - Wind Speed at 20 Meters Wind Speed at 20 meters (WSPD20M): 5.8 kts
5-day plot -  Wind Speed, Wind Gust and Atmospheric Pressure Combined plot of Wind Speed, Gust, and Air Pressure
NOS Water Level Observation Network Water Level
Previous observations
TIME
(EDT)
5-day plot - Wind Direction
WDIR
 
5-day plot - Wind Speed
WSPD
kts
5-day plot - Wind Gust
GST
kts
5-day plot - Wave Height
WVHT
ft
5-day plot - Dominant Wave Period
DPD
sec
5-day plot - Average Wave Period
APD
sec
5-day plot - Mean Wave Direction
MWD
 
5-day plot - Atmospheric Pressure
PRES
in
5-day plot - Pressure Tendency
PTDY
in
5-day plot - Air Temperature
ATMP
°F
5-day plot - Water Temperature
WTMP
°F
5-day plot - Dew Point
DEWP
°F
5-day plot - Salinity
SAL
psu
5-day plot - Visibility
VIS
nmi
5-day plot - Tide (above MLLW)
TIDE
ft
2024-05-30 05:54 pm SE 5.1 7.0------------
2024-05-30 05:48 pm SE 6.0 8.0----30.04-- 79.3----
2024-05-30 05:42 pmSSE 6.0 8.0----30.03-- 79.3----
2024-05-30 05:36 pmESE 8.0 11.1----30.03-- 79.3----
2024-05-30 05:30 pmESE 8.0 9.9----30.03- 80.2 79.3----
2024-05-30 05:24 pmESE 6.0 8.0----30.03- 79.7 79.3----
2024-05-30 05:18 pmESE 6.0 8.0----30.03- 79.7 79.3----
2024-05-30 05:12 pmESE 8.9 11.1----30.03- 79.5 79.3----
2024-05-30 05:06 pmESE 8.0 8.9----30.03- 79.5 79.3----
2024-05-30 05:00 pm SE 8.0 11.1----30.04-0.04 79.9 79.5----
2024-05-30 04:54 pmESE 8.0 9.9----30.04- 79.9 79.5----
2024-05-30 04:48 pmESE 8.0 8.9----30.04-- 79.2----
2024-05-30 04:42 pmESE 8.9 11.1----30.04-- 79.2----
2024-05-30 04:36 pm E 8.9 9.9----30.04-- 79.2----
2024-05-30 04:30 pm E 8.9 11.1----30.05- 79.3 79.2----
2024-05-30 04:24 pmESE 8.9 11.1----30.05- 79.5 79.2----
2024-05-30 04:18 pmESE 9.9 12.0----30.05- 79.3 79.2----
2024-05-30 04:12 pmESE 7.0 8.9----30.05- 79.5 79.2----
2024-05-30 04:06 pmESE 8.0 9.9----30.05- 79.9 79.2----
2024-05-30 04:00 pmESE 8.0 11.1----30.05-0.04 80.1 79.2----
2024-05-30 03:54 pmESE 8.0 9.9----30.05- 80.2 79.2----
2024-05-30 03:48 pmESE 7.0 8.9----30.05- 80.1 79.2----
2024-05-30 03:42 pmESE 8.9 11.1----30.05- 79.9 79.2----
2024-05-30 03:36 pmESE 8.0 11.1----30.06- 80.1 79.2----
2024-05-30 03:30 pmESE 8.0 9.9----30.06- 80.1 79.3----
2024-05-30 03:24 pm SE 8.0 11.1----30.06- 79.9 79.3----
2024-05-30 03:18 pm SE 7.0 11.1----30.06- 80.4 79.3----
2024-05-30 03:12 pmESE 12.0 14.0----30.06- 80.1 79.3----
2024-05-30 03:06 pmESE 8.9 11.1----30.06- 80.1 79.3----
2024-05-30 03:00 pmESE 9.9 12.0----30.06-0.03 79.2 79.3----
2024-05-30 02:54 pmESE 11.1 12.0----30.06- 79.3 79.3----
2024-05-30 02:48 pmESE 8.9 12.0----30.07- 79.7 79.3----
2024-05-30 02:42 pmESE 9.9 13.0----30.07- 78.8 79.3----
2024-05-30 02:36 pmESE 9.9 13.0----30.07- 79.0 79.3----
2024-05-30 02:30 pmESE 11.1 13.0----30.07- 78.6 79.3----
2024-05-30 02:24 pmESE 12.0 13.0----30.07- 77.7 79.3----
2024-05-30 02:18 pmESE 12.0 13.0----30.07- 78.1 79.3----
2024-05-30 02:12 pm E 13.0 14.0----30.07- 79.0 79.3----
2024-05-30 02:06 pm E 12.0 14.0----30.07- 78.4 79.3----
2024-05-30 02:00 pm E 12.0 13.0----30.07-0.02 78.4 79.3----
2024-05-30 01:54 pm E 13.0 14.0----30.07- 78.3 79.3----
2024-05-30 01:48 pm E 12.0 13.0----30.08-- 79.3----
2024-05-30 01:42 pm E 11.1 13.0----30.08-- 79.3----
2024-05-30 01:36 pmESE 11.1 12.0----30.08-- 79.3----
2024-05-30 01:30 pm E 11.1 12.0----30.08- 78.6 79.2----
2024-05-30 01:24 pm E 8.9 9.9----30.09- 79.0 79.2----
2024-05-30 01:18 pmESE 8.9 9.9----30.09- 78.8 79.2----
2024-05-30 01:12 pmESE 8.9 9.9----30.09- 79.0 79.2----
2024-05-30 01:06 pmESE 8.0 8.9----30.09- 79.2 79.2----
2024-05-30 01:00 pmESE 8.9 9.9----30.09+0.00 78.6 79.2----
2024-05-30 12:54 pmESE 8.9 9.9----30.09- 78.8 79.2----
2024-05-30 12:48 pm E 8.0 8.9----30.09- 78.6 79.0----
2024-05-30 12:42 pm E 7.0 8.9----30.10- 78.4 79.0----
2024-05-30 12:36 pm E 8.0 8.9----30.10- 77.9 79.0----
2024-05-30 12:30 pmESE 8.9 9.9----30.10- 77.9 79.0----
2024-05-30 12:24 pmESE 8.0 8.9----30.10- 77.5 79.0----
2024-05-30 12:18 pm E 8.0 8.9----30.10- 78.4 79.0----
2024-05-30 12:12 pm E 8.0 8.9----30.10- 78.3 79.0----
2024-05-30 12:06 pm E 8.9 9.9----30.09- 77.7 79.0----
2024-05-30 12:00 pm E 8.9 9.9----30.09+0.00 77.7 79.0----
2024-05-30 11:54 am E 9.9 11.1----30.09- 77.5 79.0----
2024-05-30 11:48 am E 8.9 9.9----30.10-- 79.0----
2024-05-30 11:42 am E 8.9 12.0----30.10-- 79.0----
2024-05-30 11:36 am E 9.9 11.1----30.10-- 79.0----
2024-05-30 11:30 am E 9.9 12.0----30.10- 77.5 79.0----
2024-05-30 11:24 am E 9.9 12.0----30.10- 77.4 79.0----
2024-05-30 11:18 am E 8.0 11.1----30.10- 77.4 78.8----
2024-05-30 11:12 am E 9.9 12.0----30.10- 77.2 78.8----
2024-05-30 11:06 am E 9.9 13.0----30.10- 77.2 78.8----
2024-05-30 11:00 am E 12.0 14.0----30.10+0.01 76.3 78.8----
2024-05-30 10:54 am E 13.0 15.0----30.09- 76.3 78.8----
2024-05-30 10:48 am E 12.0 14.0----30.09- 76.3 78.8----
2024-05-30 10:42 am E 12.0 15.0----30.09- 76.5 78.8----
2024-05-30 10:36 am E 11.1 14.0----30.09- 76.1 78.8----
2024-05-30 10:30 am E 8.9 13.0----30.09- 76.3 78.8----
2024-05-30 10:24 am E 11.1 13.0----30.09- 75.9 78.8----
2024-05-30 10:18 am E 11.1 13.0----30.09- 76.3 78.8----
2024-05-30 10:12 am E 9.9 12.0----30.09- 76.5 78.8----
2024-05-30 10:06 am E 11.1 12.0----30.09- 76.1 78.8----
2024-05-30 10:00 amENE 11.1 12.0----30.09+0.02 76.1 78.8----
2024-05-30 09:54 am NE 9.9 15.0----30.09- 75.9 78.8----
2024-05-30 09:48 am NE 11.1 13.0----30.09- 75.6 78.6----
2024-05-30 09:42 amENE 12.0 15.0----30.09- 75.6 78.8----
2024-05-30 09:36 am NE 9.9 15.0----30.09- 75.4 78.8----
2024-05-30 09:30 amENE 11.1 13.0----30.09- 75.4 78.6----
2024-05-30 09:24 am NE 13.0 15.9----30.09- 75.0 78.8----
2024-05-30 09:18 am NE 11.1 15.0----30.09- 75.0 78.8----
2024-05-30 09:12 am NE 9.9 15.9----30.09- 75.2 78.8----
2024-05-30 09:06 am NE 11.1 14.0----30.09- 74.8 78.6----
2024-05-30 09:00 am NE 11.1 13.0----30.09- 74.7 78.6----
2024-05-30 08:54 am E 6.0 11.1----30.09- 74.5 78.6----
2024-05-30 08:48 am NE 8.9 12.0----30.09- 74.5 78.6----
2024-05-30 08:42 am NE 11.1 14.0----30.09- 74.1 78.6----
2024-05-30 08:36 am NE 11.1 13.0----30.09- 73.9 78.6----
2024-05-30 08:30 amNNE 11.1 13.0----30.09- 73.6 78.6----
2024-05-30 08:24 am NE 13.0 15.9----30.09- 73.2 78.6----
2024-05-30 08:18 amNNE 11.1 14.0----30.09- 73.4 78.6----
2024-05-30 08:12 amNNE 9.9 13.0----30.09- 73.2 78.6----
2024-05-30 08:06 amNNE 5.1 11.1----30.09- 73.2 78.8----
2024-05-30 08:00 amNNE 8.9 12.0----30.09- 72.7 78.6----
2024-05-30 07:54 amNNE 9.9 12.0----30.09- 72.5 78.6----
2024-05-30 07:48 amNNE 8.9 12.0----30.08-- 78.6----
2024-05-30 07:42 amNNE 6.0 8.9----30.08-- 78.8----
2024-05-30 07:36 amNNE 6.0 8.9----30.08-- 79.0----
2024-05-30 07:30 amNNE 5.1 7.0----30.08- 71.8 79.0----
2024-05-30 07:24 am N 4.1 6.0----30.08- 71.8 79.0----
2024-05-30 07:18 am N 5.1 6.0----30.08- 71.1 79.0----
2024-05-30 07:12 am N 4.1 5.1----30.08- 70.5 79.0----
2024-05-30 07:06 am N 4.1 5.1----30.07- 70.3 79.0----
2024-05-30 07:00 am N 2.9 5.1----30.07- 70.0 79.2----
2024-05-30 06:54 am N 5.1 7.0----30.07- 69.6 79.2----
2024-05-30 06:48 am N 5.1 6.0----30.07- 69.4 79.2----
2024-05-30 06:42 amNNW 5.1 6.0----30.07- 69.1 79.2----
2024-05-30 06:36 am N 6.0 8.9----30.06- 68.9 79.2----
2024-05-30 06:30 am N 6.0 8.0----30.06- 68.7 79.2----
2024-05-30 06:24 am N 8.0 9.9----30.06- 68.7 79.2----
2024-05-30 06:18 am N 8.0 9.9----30.06- 68.7 79.2----
2024-05-30 06:12 am N 7.0 8.9----30.05- 68.7 79.2----
2024-05-30 06:06 am N 7.0 8.9----30.05- 68.9 79.2----
2024-05-30 06:00 am N 7.0 8.9----30.05+0.02 69.1 79.2----
2024-05-30 05:54 am N 8.0 8.9----30.05- 69.4 79.3----
2024-05-30 05:48 am N 8.0 11.1----30.04- 69.6 79.3----
2024-05-30 05:42 amNNW 8.9 9.9----30.04- 69.8 79.3----
2024-05-30 05:36 amNNW 8.9 11.1----30.04- 70.0 79.3----
2024-05-30 05:30 am N 9.9 12.0----30.03- 70.3 79.3----
2024-05-30 05:24 am N 8.0 9.9----30.03- 70.3 79.3----
2024-05-30 05:18 amNNW 8.0 11.1----30.03- 70.7 79.3----
2024-05-30 05:12 amNNW 7.0 8.9----30.03- 70.9 79.3----
2024-05-30 05:06 am N 6.0 8.9----30.03- 70.9 79.3----
2024-05-30 05:00 am N 7.0 8.9----30.03+0.01 70.5 79.3----
2024-05-30 04:54 amNNW 5.1 7.0----30.03- 70.9 79.3----
2024-05-30 04:48 amNNW 6.0 8.0----30.03-- 79.3----
2024-05-30 04:42 amNNW 6.0 8.0----30.03-- 79.3----
2024-05-30 04:36 amNNW 7.0 8.0----30.03-- 79.3----
2024-05-30 04:30 amNNW 8.9 9.9----30.02- 73.4 79.3----
2024-05-30 04:24 amNNW 8.9 11.1----30.02- 73.8 79.3----
2024-05-30 04:18 am NW 8.0 9.9----30.02- 73.9 79.5----
2024-05-30 04:12 am NW 8.9 9.9----30.02- 73.9 79.5----
2024-05-30 04:06 am NW 9.9 11.1----30.02- 73.9 79.5----
2024-05-30 04:00 am NW 8.9 9.9----30.02+0.00 73.9 79.5----
2024-05-30 03:54 am NW 8.0 9.9----30.02- 74.1 79.5----
2024-05-30 03:48 am NW 9.9 11.1----30.02-- 79.5----
2024-05-30 03:42 am NW 8.9 9.9----30.02-- 79.5----
2024-05-30 03:36 am NW 8.9 9.9----30.02-- 79.5----
2024-05-30 03:30 am NW 8.9 11.1----30.02- 73.9 79.5----
2024-05-30 03:24 am NW 5.1 6.0----30.02- 73.8 79.3----
2024-05-30 03:18 am NW 5.1 6.0----30.02- 74.1 79.5----
2024-05-30 03:12 am NW 6.0 7.0----30.02- 74.3 79.3----
2024-05-30 03:06 am NW 8.0 8.9----30.02- 74.5 79.3----
2024-05-30 03:00 am NW 8.0 8.9----30.02+0.00 74.7 79.3----
2024-05-30 02:54 am NW 8.9 9.9----30.02- 74.7 79.3----
2024-05-30 02:48 am NW 9.9 12.0----30.03- 74.8 79.3----
2024-05-30 02:42 am NW 9.9 11.1----30.02- 75.0 79.3----
2024-05-30 02:36 amWNW 9.9 12.0----30.03- 75.2 79.3----
2024-05-30 02:30 am NW 8.0 8.9----30.02- 75.4 79.3----
2024-05-30 02:24 am NW 8.0 8.9----30.02- 75.7 79.3----
2024-05-30 02:18 am NW 7.0 8.0----30.02- 75.7 79.3----
2024-05-30 02:12 amWNW 6.0 7.0----30.02- 75.7 79.3----
2024-05-30 02:06 amWNW 7.0 8.0----30.03- 75.9 79.3----
2024-05-30 02:00 amWNW 7.0 8.0----30.02+0.00 76.1 79.3----
2024-05-30 01:54 amWNW 7.0 8.0----30.03- 76.3 79.3----
2024-05-30 01:48 am NW 6.0 8.0----30.03-- 79.3----
2024-05-30 01:42 am NW 7.0 8.0----30.03-- 79.5----
2024-05-30 01:36 amWNW 8.0 8.9----30.03-- 79.5----
2024-05-30 01:30 am NW 7.0 8.9----30.03- 76.8 79.5----
2024-05-30 01:24 amWNW 6.0 7.0----30.03- 76.5 79.5----
2024-05-30 01:18 amWNW 6.0 8.0----30.03- 76.8 79.5----
2024-05-30 01:12 amWNW 6.0 6.0----30.03- 77.2 79.5----
2024-05-30 01:06 am NW 6.0 7.0----30.03- 77.2 79.5----
2024-05-30 01:00 amWNW 6.0 7.0----30.03+0.02 77.4 79.5----
2024-05-30 12:54 am NW 6.0 7.0----30.03- 77.4 79.5----
2024-05-30 12:48 am NW 6.0 7.0----30.03-- 79.5----
2024-05-30 12:42 am NW 6.0 7.0----30.03-- 79.5----
2024-05-30 12:36 amWNW 7.0 8.0----30.03-- 79.5----
2024-05-30 12:30 amWNW 7.0 8.0----30.03- 77.7 79.5----
2024-05-30 12:24 am NW 7.0 8.0----30.03- 77.4 79.7----
2024-05-30 12:18 am NW 6.0 8.0----30.03- 77.5 79.7----
2024-05-30 12:12 am NW 6.0 7.0----30.03- 77.5 79.7----
2024-05-30 12:06 amWNW 7.0 8.0----30.03- 77.7 79.7----
2024-05-30 12:00 amWNW 6.0 8.0----30.03+0.04 77.9 79.7----
2024-05-29 11:54 pmWNW 6.0 7.0----30.03- 77.9 79.7----
2024-05-29 11:48 pmWNW 7.0 8.0----30.03- 78.1 79.7----
2024-05-29 11:42 pm NW 7.0 8.0----30.02- 78.3 79.7----
2024-05-29 11:36 pm NW 5.1 7.0----30.02- 78.6 79.7----
2024-05-29 11:30 pmWNW 6.0 7.0----30.02- 78.8 79.7----
2024-05-29 11:24 pmWNW 6.0 8.0----30.02- 78.8 79.7----
2024-05-29 11:18 pmWNW 6.0 6.0----30.02- 78.6 79.7----
2024-05-29 11:12 pmWNW 5.1 6.0----30.02- 78.6 79.7----
2024-05-29 11:06 pmWNW 5.1 6.0----30.02- 78.6 79.7----
2024-05-29 11:00 pmWNW 5.1 7.0----30.02+0.03 79.0 79.7----
2024-05-29 10:54 pm W 5.1 6.0----30.02- 78.4 79.7----
2024-05-29 10:48 pm W 5.1 6.0----30.02- 78.6 79.7----
2024-05-29 10:42 pmWNW 6.0 7.0----30.02- 79.0 79.7----
2024-05-29 10:36 pm W 5.1 6.0----30.02- 78.8 79.7----
2024-05-29 10:30 pmWNW 5.1 5.1----30.02- 79.0 79.7----
2024-05-29 10:24 pmWNW 5.1 5.1----30.01- 79.2 79.5----
2024-05-29 10:18 pmWNW 5.1 6.0----30.01- 79.7 79.7----
2024-05-29 10:12 pm W 6.0 7.0----30.01- 80.2 79.7----
2024-05-29 10:06 pm W 7.0 8.0----30.01- 80.4 79.7----
2024-05-29 10:00 pm W 7.0 8.9----30.01+0.04 80.1 79.7----
2024-05-29 09:54 pm W 7.0 8.9----30.00- 79.9 79.7----
2024-05-29 09:48 pm W 6.0 8.0----30.00- 79.3 79.5----
2024-05-29 09:42 pmWNW 5.1 6.0----30.00- 79.3 79.5----
2024-05-29 09:36 pm W 5.1 6.0----30.00- 79.3 79.7----
2024-05-29 09:30 pm W 5.1 6.0----30.00- 79.2 79.7----
2024-05-29 09:24 pm W 5.1 6.0----30.00- 79.3 79.7----
2024-05-29 09:18 pmWNW 6.0 7.0----30.00- 79.7 79.7----
2024-05-29 09:12 pmWNW 5.1 6.0----29.99- 79.7 79.7----
2024-05-29 09:06 pmWNW 5.1 6.0----29.99- 79.7 79.7----
2024-05-29 09:00 pmWNW 5.1 6.0----29.99+0.02 79.7 79.7----
2024-05-29 08:54 pmWNW 5.1 6.0----29.99- 80.1 79.7----
2024-05-29 08:48 pm NW 6.0 7.0----30.00- 80.6 79.7----
2024-05-29 08:42 pm NW 6.0 7.0----30.00- 81.1 79.7----
2024-05-29 08:36 pm NW 8.0 9.9----30.00- 81.3 79.7----
2024-05-29 08:30 pm NW 8.0 9.9----30.00- 81.1 79.7----
2024-05-29 08:24 pm NW 8.9 9.9----30.00- 81.5 79.7----
2024-05-29 08:18 pm NW 7.0 8.0----29.99- 81.7 79.7----
2024-05-29 08:12 pm NW 7.0 8.0----29.99- 82.0 79.7----
2024-05-29 08:06 pmNNW 8.0 9.9----29.99- 82.4 79.7----
2024-05-29 08:00 pmNNW 8.0 9.9----29.99+0.01 82.8 79.7----
2024-05-29 07:54 pmNNW 8.0 8.9----29.99- 83.1 79.9----
2024-05-29 07:48 pmNNW 8.0 9.9----29.99-- 79.9----
2024-05-29 07:42 pmNNW 8.9 11.1----29.98-- 79.9----
2024-05-29 07:36 pmNNW 12.0 14.0----29.98-- 79.9----
2024-05-29 07:30 pm NW 9.9 12.0----29.98- 85.1 79.9----
2024-05-29 07:24 pm NW 8.9 11.1----29.98- 85.3 79.9----
2024-05-29 07:18 pm NW 8.9 11.1----29.98- 85.5 79.9----
2024-05-29 07:12 pm NW 9.9 12.0----29.97- 85.8 79.9----
2024-05-29 07:06 pm NW 8.9 11.1----29.97- 86.0 79.9----
2024-05-29 07:00 pm NW 8.0 9.9----29.97-0.03 86.2 79.9----
2024-05-29 06:54 pm NW 8.9 12.0----29.97- 86.5 79.9----
2024-05-29 06:48 pm NW 8.9 11.1----29.97- 86.5 79.9----
2024-05-29 06:42 pm NW 9.9 12.0----29.97- 87.1 80.1----
2024-05-29 06:36 pm NW 9.9 12.0----29.97- 87.3 80.1----
2024-05-29 06:30 pm NW 8.9 11.1----29.97- 87.8 80.1----
2024-05-29 06:24 pm NW 8.9 12.0----29.96- 88.2 80.1----
2024-05-29 06:18 pm NW 7.0 8.0----29.96- 88.2 80.1----
2024-05-29 06:12 pm NW 9.9 9.9----29.97- 87.6 80.1----
2024-05-29 06:06 pm NW 9.9 11.1----29.97- 87.8 80.1----
2024-05-29 06:00 pmNNW 8.0 11.1----29.97-0.05 87.6 80.1----
2024-05-29 05:54 pm NW 8.9 11.1----29.97- 88.0 80.1----